Location: Newark
(13.8117°N, 3.6025°W)
Time: 16:06:08
(UTC+00:00)

Explorer 11/Cluster Stage 4 - Pass Details

Date: 02 September 2019
Orbit: 467 x 1260 km, 28.8° (Epoch: 17 September)

Event Time Altitude Azimuth Distance (km) Brightness Sun altitude
Rises 15:01:27 0° 272° (W) 4,197 11.0 48.5°
Reaches altitude 10° 15:05:26 10° 255° (WSW) 3,220 10.7 47.6°
Maximum altitude 15:10:47 19° 214° (SW) 2,532 9.8 46.3°
Drops below altitude 10° 15:15:53 10° 172° (S) 3,024 9.6 45.0°
Sets 15:19:30 0° 155° (SSE) 3,859 10.0 44.2°
